DW7875 North Beach MD US current weather conditions

sailwx.info

Wind from 250 at 1 knots gusting 5

Air temperature 8.3° C
Dewpoint -3.8° C

Last reported at 2020-Jan-26 21:00 UTC.
Time now 2020-Jan-26 21:38 UTC

Location: N 38°43' W 076°32'.
View on Google Maps.

See reports from other nearby stations

  
Tides and Currents Weather Stations Pressure Air Temp Water Temp Dewpoint Dewpoint Depression Visibility Wind Speed Wind Dir Waves Ship Positions
date/time (UTC)wind fromknots sea level pressurealtimeterstation pressurevisibilityair tempwater tempwave heightnotes
2020-Jan-26 21:00 250 1 gusting 5 8.3
2020-Jan-26 20:45 271 2 gusting 10 8.9
2020-Jan-26 20:30 307 3 gusting 7 8.9
2020-Jan-26 20:15 352 1 gusting 4 9.4
2020-Jan-26 20:00 289 0 gusting 7 8.9
2020-Jan-26 19:45 296 2 gusting 6 8.9
2020-Jan-26 19:30 255 1 gusting 6 8.9
2020-Jan-26 19:16 321 1 gusting 6 8.9
2020-Jan-26 19:00 268 2 gusting 6 8.9
2020-Jan-26 18:45 292 3 gusting 7 8.9
2020-Jan-26 18:30 070 4 gusting 11 9.4
2020-Jan-26 18:16 311 1 gusting 6 8.9
2020-Jan-26 18:00 316 1 gusting 10 9.4
2020-Jan-26 17:46 302 2 gusting 15 10.0
2020-Jan-26 17:30 040 6 gusting 13 9.4
2020-Jan-26 17:15 280 5 gusting 9 10.0
2020-Jan-26 17:00 285 3 gusting 9 9.4
2020-Jan-26 16:45 050 3 gusting 13 10.0
2020-Jan-26 16:30 317 2 gusting 11 9.4
2020-Jan-26 16:18 022 3 gusting 10 9.4
2020-Jan-26 16:02 242 2 gusting 12 9.4
2020-Jan-26 15:47 347 5 gusting 10 9.4
2020-Jan-26 15:31 297 2 gusting 6 8.9
2020-Jan-26 15:18 283 2 gusting 9 8.9
2020-Jan-26 15:02 226 1 gusting 6 8.3
2020-Jan-26 14:46 259 1 gusting 5 7.8
2020-Jan-26 14:31 096 0 gusting 3 7.8
2020-Jan-26 14:15 285 0 gusting 6 7.2
2020-Jan-26 14:00 295 0 gusting 3 6.7
2020-Jan-26 13:45 254 0 gusting 3 5.6
2020-Jan-26 13:31 257 0 gusting 2 3.9
2020-Jan-26 13:16 256 2.8
2020-Jan-26 13:00 256 3.3
2020-Jan-26 12:45 256 3.3
2020-Jan-26 12:30 254 3.3
2020-Jan-26 12:16 248 3.3
2020-Jan-26 12:01 248 0 gusting 2 3.3
2020-Jan-26 11:45 321 3.3
2020-Jan-26 11:30 321 2.8
2020-Jan-26 11:15 297 2.2
2020-Jan-26 11:00 264 2.2
2020-Jan-26 10:45 264 2.2
2020-Jan-26 10:31 264 2.2
2020-Jan-26 10:15 264 2.2
2020-Jan-26 10:00 264 2.2
2020-Jan-26 09:45 264 0 gusting 2 2.8
2020-Jan-26 09:30 252 2.8
2020-Jan-26 09:15 322 2.8
2020-Jan-26 09:00 293 2.8
2020-Jan-26 08:45 311 1.7
2020-Jan-26 08:30 314 1.7
2020-Jan-26 08:15 314 2.2
2020-Jan-26 08:00 314 2.8
2020-Jan-26 07:46 314 3.3
2020-Jan-26 07:33 314 3.9
2020-Jan-26 07:18 314 4.4
2020-Jan-26 07:01 314 5.0
2020-Jan-26 06:47 314 5.6
2020-Jan-26 06:32 307 5.6
2020-Jan-26 06:17 316 0 gusting 2 6.1
2020-Jan-26 06:01 310 0 gusting 5 6.1
2020-Jan-26 05:31 360 0 gusting 5 6.1
2020-Jan-26 05:16 309 2 gusting 6 6.1
2020-Jan-26 05:01 312 6.1
2020-Jan-26 04:47 257 0 gusting 3 6.1
2020-Jan-26 04:30 241 0 gusting 3 5.6
2020-Jan-26 04:15 303 1 gusting 6 6.1
2020-Jan-26 04:01 264 1 gusting 3 5.6
2020-Jan-26 03:45 315 0 gusting 5 5.6
2020-Jan-26 03:31 338 2 gusting 6 6.1
2020-Jan-26 03:01 359 5.6
2020-Jan-26 02:45 306 0 gusting 5 6.1
2020-Jan-26 02:30 354 0 gusting 3 6.7
2020-Jan-26 02:15 293 6.7
2020-Jan-26 02:01 316 0 gusting 6 7.2
2020-Jan-26 01:45 314 1 gusting 4 7.2
2020-Jan-26 01:31 325 0 gusting 4 7.2
2020-Jan-26 01:15 328 0 gusting 6 7.2
2020-Jan-26 01:00 312 0 gusting 5 6.1
2020-Jan-26 00:46 298 5.6
2020-Jan-26 00:31 298 5.6
2020-Jan-26 00:15 298 5.6
2020-Jan-26 00:01 298 5.6
2020-Jan-25 23:45 113 5.6
2020-Jan-25 23:30 113 6.1
2020-Jan-25 23:15 324 6.1
2020-Jan-25 23:00 318 6.7
2020-Jan-25 22:45 318 7.8
2020-Jan-25 22:30 330 0 gusting 3 8.3
2020-Jan-25 22:15 330 0 gusting 5 8.9
2020-Jan-25 22:00 311 1 gusting 6 9.4
2020-Jan-25 21:45 327 2 gusting 6 9.4
2020-Jan-25 21:30 303 1 gusting 6 9.4
2020-Jan-25 21:15 341 1 gusting 9 9.4
2020-Jan-25 21:00 314 2 gusting 8 9.4
2020-Jan-25 20:45 325 1 gusting 10 9.4
2020-Jan-25 20:30 321 1 gusting 10 10.0
2020-Jan-25 20:15 319 3 gusting 10 10.0
2020-Jan-25 20:00 329 2 gusting 10 10.6
2020-Jan-25 19:45 314 2 gusting 8 10.6
2020-Jan-25 19:30 281 1 gusting 6 10.6
2020-Jan-25 19:15 027 1 gusting 6 10.6
2020-Jan-25 19:02 339 2 gusting 5 10.6
2020-Jan-25 18:46 267 1 gusting 6 10.6
2020-Jan-25 18:32 300 0 gusting 6 10.0
2020-Jan-25 18:18 296 10.0
2020-Jan-25 18:02 273 1 gusting 4 10.0
2020-Jan-25 17:48 293 0 gusting 3 10.0
2020-Jan-25 17:32 247 0 gusting 4 10.0
2020-Jan-25 17:16 262 2 gusting 6 10.0
2020-Jan-25 17:02 297 0 gusting 5 10.0
2020-Jan-25 16:46 289 0 gusting 6 9.4
2020-Jan-25 16:30 263 1 gusting 7 9.4
2020-Jan-25 16:17 309 1 gusting 5 9.4
2020-Jan-25 16:01 214 0 gusting 3 8.9
2020-Jan-25 15:46 255 2 gusting 5 8.9
2020-Jan-25 15:30 242 2 gusting 6 8.9
2020-Jan-25 15:15 224 0 gusting 3 8.3
2020-Jan-25 15:00 320 0 gusting 3 7.8
2020-Jan-25 14:45 255 1 gusting 2 7.2
2020-Jan-25 14:30 075 0 gusting 1 7.2
2020-Jan-25 14:15 072 7.2
2020-Jan-25 14:00 030 7.8
2020-Jan-25 13:46 359 7.2
2020-Jan-25 13:31 050 0 gusting 6 7.2
2020-Jan-25 13:16 354 1 gusting 6 7.2
2020-Jan-25 13:00 028 2 gusting 6 7.8
2020-Jan-25 12:46 029 3 gusting 8 7.8
2020-Jan-25 12:31 360 2 gusting 4 8.3
2020-Jan-25 12:16 314 0 gusting 4 8.3
2020-Jan-25 12:00 308 8.3
2020-Jan-25 11:46 020 0 gusting 4 8.3
2020-Jan-25 11:30 311 1 gusting 6 8.9
2020-Jan-25 11:15 046 9.4
2020-Jan-25 11:00 309 0 gusting 3 9.4
2020-Jan-25 10:45 291 2 gusting 6 8.9
2020-Jan-25 10:30 240 1 gusting 5 8.3
2020-Jan-25 10:16 127 5 gusting 7 8.3
2020-Jan-25 10:00 009 0 gusting 2 7.8
2020-Jan-25 09:45 091 7.8
2020-Jan-25 09:30 091 7.2
2020-Jan-25 09:16 086 7.2
2020-Jan-25 09:02 121 1 gusting 4 7.8
2020-Jan-25 08:47 116 0 gusting 3 7.8
2020-Jan-25 08:31 115 0 gusting 2 7.8
2020-Jan-25 08:17 229 0 gusting 2 7.8
2020-Jan-25 08:01 117 2 gusting 7 7.8
2020-Jan-25 07:47 264 1 gusting 3 7.2
2020-Jan-25 07:32 155 0 gusting 4 6.7
2020-Jan-25 07:02 131 4 gusting 6 7.8
2020-Jan-25 06:46 141 1 gusting 5 8.3
2020-Jan-25 06:32 077 5 gusting 8 8.3
2020-Jan-25 06:15 238 2 gusting 7 7.8
2020-Jan-25 06:02 088 0 gusting 4 7.8
2020-Jan-25 05:46 084 2 gusting 6 7.8
2020-Jan-25 05:31 092 2 gusting 5 7.2
2020-Jan-25 05:15 129 1 gusting 4 7.2
2020-Jan-25 05:01 272 6.7
2020-Jan-25 04:45 269 0 gusting 2 6.7
2020-Jan-25 04:31 271 6.1
2020-Jan-25 04:15 271 0 gusting 2 6.7
2020-Jan-25 04:01 165 6.7
2020-Jan-25 03:45 165 7.2
2020-Jan-25 03:30 127 1 gusting 4 7.2
2020-Jan-25 03:15 122 2 gusting 5 7.8
2020-Jan-25 03:00 096 1 gusting 4 7.8
2020-Jan-25 02:45 094 0 gusting 4 7.8
2020-Jan-25 02:33 069 2 gusting 6 7.8
2020-Jan-25 02:18 120 2 gusting 6 7.8
2020-Jan-25 02:01 110 3 gusting 6 7.2
2020-Jan-25 01:50 082 1 gusting 4 7.2
2020-Jan-25 01:31 125 2 gusting 6 7.2
2020-Jan-25 01:17 081 1 gusting 6 7.2
2020-Jan-25 01:01 115 1 gusting 3 7.8
2020-Jan-25 00:48 128 1 gusting 4 7.8
2020-Jan-25 00:33 128 1 gusting 4 7.8
2020-Jan-25 00:16 127 7.8
2020-Jan-25 00:01 084 7.8
2020-Jan-24 23:46 084 7.8
2020-Jan-24 23:31 084 7.8
2020-Jan-24 23:17 084 7.8
2020-Jan-24 23:01 083 7.8
2020-Jan-24 22:46 103 0 gusting 3 7.8
2020-Jan-24 22:31 088 0 gusting 2 8.3
2020-Jan-24 22:16 093 0 gusting 2 8.3
2020-Jan-24 22:02 079 0 gusting 2 8.3
2020-Jan-24 21:47 033 0 gusting 2 8.3
2020-Jan-24 21:32 320 8.9
2020-Jan-24 21:16 360 0 gusting 5 8.9
2020-Jan-24 21:02 063 0 gusting 5 8.9